Home > Weather > Erfurt > Past weeks

Flag for Germany Weather for the Past 2 Weeks in Erfurt, Thuringia, Germany

Now
41 °F

Clear.


Feels Like: 35 °F
Forecast: 43 / 52 °F
Wind: 9 mph from South

Location: Erfurt-Bindersleben

Current Time: Feb 7, 2016 at 2:54:18 AM

Latest Report: Feb 7, 2016 at 2:20 AM


Visibility: 10 mi

Pressure: 29.68 "Hg

Humidity: 76%

Dew point: 34 °F

Location of ErfurtLocation

Historic Weather in Erfurt — Graph

°F

Erfurt Temperature Yesterday

Maximum temperature yesterday: 52 °F (at 2:20 PM)
Minimum temperature yesterday: 37 °F (at 7:50 AM)
Average temperature yesterday: 45 °F

High & Low Weather Summary for the Past Weeks

 TemperatureHumidityPressure
High54 °F (Feb 1, 1:20 PM)100% (Jan 23, 8:50 AM)30.54 "Hg (Jan 23, 8:50 AM)
Low25 °F (Jan 23, 12:20 AM)53% (Jan 28, 2:20 PM)29.68 "Hg (Jan 30, 4:50 PM)
Average42 °F81%30.10 "Hg
* Reported Jan 23 12:20 AM — Feb 7 12:50 AM, Erfurt, Weather by CustomWeather, © 2016

Note: Actual official high and low records may vary slightly from our data, if they occured in-between our weather recording intervals... More about our weather records

Advertising

Erfurt Weather History for the Previous 24 Hours

 ConditionsComfort  
Time TempWeatherWind HumidityBarometerVisibility
12:50 AM
Sun, Feb 7
45 °FClear.10 mph66%29.71 "Hg10 mi
12:20 AM43 °FClear.14 mph76%29.74 "Hg10 mi
11:50 PM
Sat, Feb 6
43 °FClear.12 mph76%29.74 "Hg10 mi
11:20 PM45 °FClear.14 mph71%29.74 "Hg10 mi
10:50 PM43 °FClear.10 mph76%29.77 "Hg10 mi
10:20 PM45 °FClear.12 mph71%29.77 "Hg10 mi
9:50 PM45 °FClear.13 mph76%29.77 "Hg10 mi
9:20 PM45 °FClear.10 mph76%29.77 "Hg10 mi
8:50 PM45 °FClear.14 mph76%29.80 "Hg10 mi
8:20 PM45 °FClear.10 mph71%29.80 "Hg10 mi
7:50 PM46 °FClear.12 mph71%29.83 "Hg10 mi
7:20 PM46 °FClear.17 mph71%29.83 "Hg10 mi
6:50 PM45 °FClear.15 mph76%29.83 "Hg10 mi
6:20 PM46 °FClear.15 mph71%29.83 "Hg10 mi
5:50 PM46 °FClear.15 mph71%29.86 "Hg10 mi
5:20 PM46 °FPassing clouds.17 mph71%29.86 "HgN/A
4:50 PM46 °FPartly sunny.20 mph71%29.86 "HgN/A
4:20 PM48 °FPartly sunny.17 mph66%29.86 "HgN/A
3:50 PM50 °FPartly sunny.17 mph62%29.86 "HgN/A
3:20 PM50 °FPartly sunny.17 mph67%29.86 "HgN/A
2:50 PM52 °FPartly sunny.16 mph62%29.89 "HgN/A
2:20 PM52 °FPartly sunny.17 mph62%29.89 "HgN/A
1:50 PM50 °FPartly sunny.16 mph71%29.92 "HgN/A
1:20 PM50 °FPartly sunny.15 mph67%29.95 "HgN/A
12:50 PM50 °FSunny.17 mph67%29.95 "Hg10 mi
11:50 AM46 °FSunny.13 mph76%29.98 "Hg10 mi
11:20 AM45 °FPassing clouds.5 mph81%29.98 "HgN/A
10:50 AM45 °FBroken clouds.6 mph76%29.98 "HgN/A
10:20 AM43 °FSunny.7 mph81%29.98 "Hg10 mi
9:50 AM43 °FSunny.12 mph81%29.98 "Hg10 mi
9:20 AM43 °FSunny.15 mph81%30.01 "Hg10 mi
8:50 AM41 °FSunny.13 mph87%30.01 "Hg10 mi
8:20 AM39 °FSunny.10 mph87%30.01 "Hg10 mi
7:50 AM37 °FSunny.9 mph93%30.01 "Hg10 mi
7:20 AM39 °FClear.12 mph87%30.01 "Hg10 mi
6:50 AM39 °FClear.8 mph87%30.04 "Hg10 mi
6:20 AM41 °FClear.8 mph87%30.04 "Hg10 mi
5:50 AM41 °FClear.10 mph87%30.04 "Hg10 mi
5:20 AM41 °FPassing clouds.12 mph87%30.07 "HgN/A
4:50 AM43 °FPassing clouds.8 mph81%30.07 "HgN/A
4:20 AM43 °FPassing clouds.6 mph87%30.09 "HgN/A
3:50 AM43 °FPassing clouds.6 mph87%30.09 "HgN/A
3:20 AM43 °FPassing clouds.6 mph87%30.09 "HgN/A
2:50 AM43 °FPassing clouds.6 mph87%30.09 "HgN/A
2:20 AM43 °FPassing clouds.7 mph87%30.12 "HgN/A
Weather by CustomWeather, © 2016

See weather overviewHow to use our weather pages